Dewpoint
65 66 69 70 70 70 70 69 69 69 69 69 69 69 69 69 69 69 68 67 67 66 64 63 64 62 61 61 61 62 62 61 61 60 59 59 58 58 58 58 56 56 59
65 66 69 69 70 70 70 69 69 69 69 69 69 69 69 69 69 68 68 67 66 64 62 62 62 61 61 62 61 61 61 61 60 60 60 60 59 61 61 62 61 60 60
66 66 68 70 69 69 70 70 70 70 69 69 69 69 69 68 68 67 66 66 64 63 61 61 60 60 60 60 60 59 59 60 60 59 58 56 57 58 60 62 62 61 60
67 66 65 69 69 69 69 70 70 70 69 69 69 69 68 68 67 66 65 64 63 63 61 60 60 60 60 59 59 58 58 58 58 57 53 53 56 59 59 60 59 59 59
68 68 67 69 69 69 69 69 69 69 69 69 69 68 68 66 65 65 64 64 64 63 61 61 59 60 60 60 59 58 58 57 57 53 53 53 57 59 58 57 56 54 54
67 68 68 68 69 69 69 69 69 69 69 69 68 68 67 65 66 65 65 64 64 63 63 61 60 60 61 60 59 59 58 57 54 52 53 53 53 55 55 55 54 54 53
64 65 68 68 67 69 69 69 69 69 68 68 68 67 65 65 65 65 65 64 64 64 63 63 63 61 61 60 59 58 58 55 52 52 52 52 54 54 54 53 53 53 52
63 63 64 67 66 64 68 68 68 68 68 67 67 66 65 65 65 65 65 64 64 63 63 64 62 61 61 60 58 58 57 54 52 52 52 52 54 53 53 53 52 52 51
62 62 63 64 63 62 64 65 67 67 67 67 66 65 65 65 65 65 65 64 62 63 63 64 61 61 60 59 58 58 57 54 51 52 51 52 53 53 53 52 52 51 51
61 62 62 64 63 64 64 62 66 67 67 67 66 66 65 65 65 64 64 62 63 65 64 63 61 60 60 59 58 58 57 55 51 51 52 53 54 53 52 52 51 50 50
60 61 62 62 63 63 63 63 66 66 67 67 66 65 64 64 63 62 60 61 63 64 63 61 61 60 60 59 59 58 55 52 52 51 52 55 53 52 52 51 51 50 49
58 59 61 61 61 62 64 64 65 65 66 66 66 65 64 64 63 60 59 60 61 63 62 61 61 60 57 55 56 56 52 54 52 51 52 55 53 52 51 50 50 50 49
57 58 60 61 61 61 62 64 63 62 63 65 65 64 64 63 61 59 57 56 59 61 59 59 58 54 55 54 53 54 55 53 53 52 53 54 52 52 51 50 49 49 48
57 58 60 61 61 62 61 63 62 61 62 64 63 64 63 61 60 58 55 53 54 57 58 57 54 53 52 52 53 54 54 53 53 52 52 53 53 51 51 50 49 48 47
57 59 60 60 61 61 61 61 62 60 61 63 63 62 62 60 58 56 55 51 50 52 53 52 52 49 48 48 48 50 53 54 54 53 51 54 53 52 51 50 49 49 47
58 58 59 60 60 60 60 60 62 60 59 61 63 61 62 60 57 55 54 51 50 49 50 49 48 45 42 40 41 41 43 50 54 54 52 52 53 53 51 50 49 48 47
58 57 58 59 59 59 60 61 60 59 59 61 62 63 62 60 57 55 53 51 49 46 46 45 44 42 41 40 41 42 43 46 50 55 53 52 52 53 53 52 50 49 47
57 57 57 58 58 58 59 59 59 59 59 61 62 62 62 59 56 55 53 51 51 47 44 42 41 41 41 40 41 41 41 43 50 54 55 54 52 50 53 53 51 46 48
56 56 56 57 56 57 58 59 59 59 60 61 61 60 60 59 56 54 53 52 52 48 45 42 41 40 39 39 41 42 43 42 45 52 54 54 53 50 47 51 49 47 46
56 55 56 56 56 56 57 58 59 59 59 59 60 59 59 58 56 54 53 53 52 48 45 43 42 41 39 38 35 39 41 41 43 44 49 51 49 48 47 45 44 42 46
55 55 55 55 56 56 55 56 56 56 57 58 58 58 58 58 56 55 53 54 53 50 46 45 44 42 40 41 38 38 39 39 39 41 44 44 44 44 44 45 44 39 40
54 54 55 54 55 55 55 56 56 56 57 57 57 58 57 57 56 55 53 53 53 52 49 46 44 44 43 42 37 37 35 38 39 39 38 43 43 41 41 43 43 42 38
53 54 54 54 54 55 55 55 55 54 54 55 56 56 56 56 55 55 54 54 54 53 51 49 47 44 42 42 44 40 39 36 39 42 41 38 40 42 40 39 41 41 40
54 54 54 54 54 54 53 53 54 53 53 53 53 54 55 56 57 56 55 54 54 54 53 52 50 48 46 41 42 44 43 42 38 38 40 41 40 39 40 38 38 40 39
54 53 53 54 53 53 52 53 52 51 52 50 53 54 54 54 55 56 57 56 55 54 54 54 51 49 49 47 43 44 43 40 40 38 38 37 38 39 40 39 38 39 40
53 53 53 53 53 52 52 52 51 51 51 48 50 51 53 53 54 55 55 56 57 56 55 54 53 52 51 50 47 47 43 41 39 39 39 37 37 37 37 38 40 40 40
Wind_Speed
12 16 10 15 16 12 25 34 34 34 35 39 35 28 28 29 28 28 28 28 27 27 28 28 26 26 26 26 27 25 24 24 24 24 25 25 25 25 24 22 22 24 24
5 17 19 20 24 18 19 29 32 26 29 30 36 31 27 29 29 28 28 27 28 28 28 28 27 28 26 25 26 25 25 23 23 24 24 26 24 26 24 23 24 25 26
9 18 20 18 20 18 19 25 31 32 31 31 30 32 31 28 27 28 30 28 28 29 29 28 27 27 25 25 24 24 24 23 22 21 21 22 22 23 26 25 25 27 27
15 21 20 21 23 26 26 28 32 34 34 32 29 29 30 29 28 29 30 28 29 29 30 29 28 26 25 24 23 24 23 22 20 18 20 20 22 22 25 26 26 26 26
16 22 21 20 24 24 28 29 32 33 33 33 32 30 29 28 29 30 30 28 29 28 30 29 27 26 24 22 23 23 23 23 20 21 20 19 20 21 24 24 23 22 23
11 22 29 31 27 25 26 28 31 32 31 33 34 32 30 29 29 29 28 28 28 28 29 28 27 26 23 23 23 23 23 22 20 22 21 20 20 22 24 23 23 23 23
14 10 25 27 31 29 31 29 30 32 31 32 36 34 32 30 30 29 28 27 26 26 25 25 26 25 24 22 21 21 20 18 21 21 20 20 21 23 24 22 22 23 23
10 7 12 15 24 25 24 29 29 31 32 30 31 37 32 31 30 28 27 25 24 23 24 25 26 25 23 22 21 21 19 20 20 21 21 20 22 23 23 23 22 22 22
1 6 12 4 1 17 16 24 27 29 30 30 29 30 34 30 29 27 24 23 20 19 22 26 26 25 24 23 21 18 18 17 19 17 20 19 23 22 22 22 22 21 21
4 8 9 25 27 20 23 30 27 25 27 30 32 28 29 31 29 26 24 22 20 19 27 28 26 25 24 21 20 18 18 15 18 17 16 20 22 22 21 21 21 20 20
3 7 12 10 19 19 22 19 12 28 30 30 29 27 29 24 28 28 23 21 21 23 27 27 26 24 22 21 19 18 13 15 14 13 16 20 22 22 21 20 19 19 20
9 2 4 9 8 6 5 16 16 20 23 25 27 29 22 22 25 24 22 20 20 23 25 25 24 24 21 19 16 16 12 15 13 13 16 18 20 21 20 20 18 18 18
6 7 3 6 8 9 5 12 15 11 10 18 27 23 24 19 21 20 19 18 18 22 20 22 23 18 17 17 15 13 15 14 12 12 17 17 19 18 18 18 17 17 16
7 6 3 4 6 11 13 14 20 22 12 13 22 24 25 18 20 20 19 18 18 16 20 18 16 15 16 16 15 14 14 15 13 12 16 16 18 17 16 16 16 15 15
9 5 6 3 6 8 13 16 24 28 21 14 17 22 25 20 21 21 18 18 15 18 18 18 16 14 17 15 12 13 13 12 13 11 13 16 17 17 16 15 14 14 13
8 6 5 2 3 8 18 29 22 27 28 22 16 20 24 21 21 21 20 19 16 17 16 17 17 15 14 14 13 11 12 12 13 14 13 15 15 16 16 14 13 13 12
6 6 7 3 2 3 11 34 32 27 24 21 19 21 23 22 23 21 19 18 18 16 16 15 14 12 14 12 12 10 10 10 12 13 13 12 14 14 15 15 14 13 12
6 6 4 5 7 8 11 21 25 25 21 17 18 17 21 23 23 20 19 19 17 17 17 16 15 13 12 13 12 10 9 9 9 10 12 12 12 13 13 14 14 13 13
5 7 7 8 8 11 13 14 22 23 17 12 12 14 15 22 21 21 18 17 17 15 15 17 13 13 14 13 12 9 8 7 8 8 12 11 11 11 11 13 12 12 12
7 7 8 9 12 11 11 13 16 17 14 12 12 13 16 17 19 17 15 16 16 14 16 15 15 10 11 13 12 9 7 6 6 9 11 10 10 11 11 11 12 12 13
8 10 10 11 13 15 13 13 12 17 15 12 12 13 15 16 18 17 14 15 15 16 15 17 12 12 8 10 11 5 4 7 9 9 9 10 11 11 10 11 11 10 13
10 9 11 12 11 13 14 9 8 11 9 10 11 15 15 19 17 14 15 16 16 14 14 16 13 8 5 14 8 7 6 8 12 13 11 13 13 12 13 13 13 13 12
13 13 13 15 13 13 13 15 13 11 12 9 15 14 15 17 19 13 16 15 16 14 16 16 13 15 13 14 9 5 5 9 7 8 16 13 14 14 14 13 14 15 15
14 13 14 17 15 14 17 17 21 15 18 12 16 12 15 13 14 16 12 15 16 14 14 17 16 14 11 15 10 11 3 1 6 5 6 11 13 15 16 14 13 16 16
15 16 16 16 15 16 16 19 19 15 12 9 12 15 17 13 11 9 13 14 18 15 14 14 15 18 15 11 13 6 9 6 4 7 12 7 8 10 13 15 14 15 14
16 16 17 18 17 15 13 16 21 18 16 15 14 15 12 13 14 18 17 15 15 17 17 17 18 19 20 17 14 14 12 10 12 6 9 6 8 7 12 11 12 11 11
Wind_Direction
202 172 186 144 134 155 148 146 144 154 149 141 139 140 139 132 134 135 134 132 128 124 124 120 116 113 112 109 104 101 97 95 96 95 94 95 95 96 95 95 91 85 75
180 176 180 168 146 154 156 147 144 149 143 141 138 141 140 134 131 134 129 129 125 125 123 119 116 113 111 109 105 101 96 96 95 97 98 90 89 89 93 90 89 90 89
201 189 184 156 145 151 154 150 145 145 141 140 143 139 133 133 132 133 128 129 127 126 124 121 116 115 114 109 109 106 103 100 93 95 102 98 93 93 90 87 88 87 85
186 187 190 166 151 153 152 152 147 145 145 146 140 135 132 133 135 133 129 134 130 129 128 124 120 119 116 112 108 106 106 99 93 102 100 99 96 91 91 85 85 87 85
197 187 191 171 157 156 150 153 149 146 149 142 137 136 135 137 137 132 133 136 133 131 127 125 124 123 117 115 114 114 113 107 104 100 97 96 97 89 89 88 88 85 81
216 197 182 168 160 153 153 155 147 149 149 145 141 139 138 139 135 136 137 138 135 136 130 129 127 125 122 121 120 118 116 111 109 102 99 97 96 97 95 93 91 91 89
230 251 180 164 164 156 155 156 154 150 150 150 144 140 140 141 139 140 142 142 145 138 130 133 134 130 125 124 121 122 113 114 109 104 102 102 102 101 98 98 97 97 96
230 305 349 165 159 167 162 155 156 153 152 152 145 138 142 141 140 144 145 145 138 137 138 136 132 128 126 126 122 117 118 117 113 111 109 106 106 103 103 102 101 98 98
269 130 79 360 20 172 202 189 159 158 152 146 142 141 143 140 144 142 139 134 133 141 143 137 134 131 130 128 127 124 117 118 113 112 110 110 109 107 105 103 102 102 100
50 98 131 177 198 207 194 204 163 161 151 147 142 142 138 137 137 137 132 134 136 140 147 142 135 135 134 130 125 124 119 127 114 117 115 115 115 111 110 108 106 106 102
0 93 139 155 187 201 206 185 173 163 153 141 134 131 134 139 140 142 145 137 139 142 141 138 137 131 129 127 129 124 133 116 118 119 118 127 123 119 116 113 111 109 106
300 287 149 181 176 206 194 167 155 177 160 147 141 141 138 144 139 148 144 131 136 143 138 134 131 132 138 138 132 133 132 128 129 126 124 131 128 125 123 119 116 112 108
253 265 181 202 181 201 195 170 165 169 169 150 146 144 135 141 139 142 145 139 138 139 141 138 139 146 147 145 147 148 138 133 137 132 134 136 129 129 127 125 122 120 118
209 208 253 215 213 197 186 186 173 160 176 158 149 143 134 143 146 147 152 151 145 152 149 155 154 154 149 134 145 144 153 145 149 144 143 140 135 133 133 136 133 128 125
187 204 214 216 240 229 198 207 180 169 162 174 157 152 138 145 155 152 151 153 156 152 156 154 152 159 136 143 140 157 149 149 151 153 152 149 143 143 143 142 141 138 132
177 212 222 223 277 241 229 204 200 172 166 160 160 155 141 155 158 158 155 157 158 155 159 154 156 156 148 142 149 153 151 157 168 167 160 159 156 154 151 151 149 145 143
176 195 195 118 18 31 297 201 172 163 154 153 147 151 147 158 160 160 158 157 160 152 154 147 145 151 147 148 154 154 152 160 173 175 171 164 166 165 163 164 164 162 156
166 180 150 92 59 63 44 114 131 139 143 144 146 144 158 156 158 158 164 162 163 161 156 148 153 161 148 159 157 162 169 174 174 171 177 174 175 176 175 173 175 170 171
169 158 145 123 96 81 68 84 116 124 126 133 137 135 151 155 158 157 159 163 161 164 157 146 159 163 166 166 159 164 170 178 180 181 183 182 182 182 185 176 172 173 176
154 132 121 122 121 101 87 86 113 118 118 131 162 157 153 157 153 154 153 154 162 168 170 152 163 172 177 165 158 170 175 191 196 203 201 193 195 192 189 190 187 190 190
156 144 145 142 140 133 130 120 124 137 139 146 157 146 154 160 150 152 154 157 166 185 178 156 164 172 164 169 141 167 203 216 219 220 213 208 204 204 201 201 202 200 202
166 167 157 152 153 145 151 132 122 134 134 133 151 161 158 153 143 148 159 167 180 182 177 172 175 168 171 182 170 161 202 220 229 221 216 216 214 209 212 212 209 212 214
169 176 160 162 158 149 146 123 104 94 113 150 164 155 152 148 154 161 183 172 188 185 192 186 185 185 187 199 205 168 177 217 194 200 221 217 217 218 223 221 220 221 222
180 169 167 164 161 153 155 162 165 162 170 178 169 160 146 147 150 163 181 192 194 197 193 200 199 200 194 202 214 236 274 159 193 202 214 224 225 224 220 223 227 228 226
180 172 167 164 169 165 169 168 169 170 176 145 152 164 157 154 163 172 198 203 204 201 213 207 203 212 211 206 207 195 221 225 234 227 249 191 208 222 227 223 220 228 222
182 179 171 172 172 170 172 170 180 185 184 172 172 180 168 165 180 200 211 214 216 212 215 215 212 213 217 222 219 205 198 211 206 200 229 217 210 230 223 210 212 217 216